Regional Weather Roundup
Issued by NWS

Home | Current Version | Previous Version | Text Only | Print | Product List | Glossary On
Versions: 1 2 3 4 5 6 7 8 9 10 11 12 13 14 15 16 17 18 19 20 21 22 23 24 25 26 27 28 29 30 31 32 33 34 35 36 37 38 39 40 41 42 43 44 45 46 47 48 49 50
000
ASUS43 KMKX 151210
RWRWI

WISCONSIN REGIONAL WEATHER ROUNDUP
NATIONAL WEATHER SERVICE MILWAUKEE/SULLIVAN WI
600 AM CST FRI DEC 15 2017

NOTE: "FAIR" INDICATES FEW OR NO CLOUDS BELOW 12,000 FEET WITH NO
SIGNIFICANT WEATHER AND/OR OBSTRUCTIONS TO VISIBILITY.

WIZ001-002-006>008-014>016-023>028-151300-
NORTHWEST WISCONSIN

CITY           SKY/WX    TMP DP  RH WIND       PRES   REMARKS
SUPERIOR ARPT  CLOUDY    15   8  74 NW8       29.90S WCI   4
6HR MIN TEMP:  13; 6HR MAX TEMP:  16;

ASHLAND        CLOUDY    14   9  80 SW8       29.86S WCI   3
6HR MIN TEMP:  13; 6HR MAX TEMP:  16; 6HR PCP: TRACE;

HAYWARD        FLURRIES  14   8  77 VRB5      29.85S WCI   6
6HR MIN TEMP:  14; 6HR MAX TEMP:  17; 6HR PCP: TRACE;

SIREN          CLOUDY    15   8  73 N3        29.90S
6HR MIN TEMP:  14; 6HR MAX TEMP:  19;

CUMBERLAND     CLOUDY    12   5  73 NW7       29.87S WCI   2
RICE LAKE      CLOUDY    14   8  76 CALM      29.90S
6HR MIN TEMP:  14; 6HR MAX TEMP:  20;

CHETEK         CLOUDY    15   9  75 NW6       29.89S WCI   6
6HR MIN TEMP:  15; 6HR MAX TEMP:  19;

LADYSMITH      CLOUDY    15  10  80 W9        29.87S WCI   4
6HR MIN TEMP:  15; 6HR MAX TEMP:  18;

EAU CLAIRE     CLOUDY    19  12  74 NW8G18    29.89S WCI   9
6HR MIN TEMP:  19; 6HR MAX TEMP:  21; 6HR PCP: TRACE;

MENOMONIE      CLOUDY    20  15  81 NW7       29.90S WCI  11
6HR MIN TEMP:  18; 6HR MAX TEMP:  22;

NEW RICHMOND   CLOUDY    18  12  77 N9        29.91R WCI   7
6HR MIN TEMP:  18; 6HR MAX TEMP:  20;

OSCEOLA        CLOUDY    18  12  77 NW5       29.94S WCI  11
6HR MIN TEMP:  18; 6HR MAX TEMP:  21;

$$

WIZ003>005-009-010-017-018-151300-
NORTH CENTRAL WISCONSIN

CITY           SKY/WX    TMP DP  RH WIND       PRES   REMARKS
MANITOWISH WTR FLURRIES  11   8  87 W8        29.77S WCI   0
6HR MIN TEMP:  10; 6HR MAX TEMP:  14;

ARBOR VITAE    LGT SNOW  14  10  84 NW7       29.77S WCI   4
6HR MIN TEMP:  14; 6HR MAX TEMP:  17;

WOODRUFF       LGT SNOW  14  10  84 NW7       29.77S WCI   4
6HR MIN TEMP:  14; 6HR MAX TEMP:  17;

RHINELANDER    LGT SNOW  12   8  84 W7        29.77R FOG     WCI   1
6HR MIN TEMP:  12; 6HR MAX TEMP:  15; 6HR PCP: TRACE;

EAGLE RIVER    FLURRIES  11   6  81 W8        29.74S WCI  -1
6HR MIN TEMP:   8; 6HR MAX TEMP:  15;

LAND O LAKES   LGT SNOW  12   9  87 W7        29.75S WCI   1
6HR MIN TEMP:  10; 6HR MAX TEMP:  15;

PHILLIPS       LGT SNOW  12   9  87 W5        29.81R WCI   4
6HR MIN TEMP:  12; 6HR MAX TEMP:  15;

TOMAHAWK       CLOUDY    12   8  82 NW7       29.80R WCI   1
6HR MIN TEMP:  12; 6HR MAX TEMP:  16;

MEDFORD        FLURRIES  14  10  84 NW8       29.81R WCI   3
6HR MIN TEMP:  14; 6HR MAX TEMP:  16;

MERRILL        FLURRIES  15  10  82 N3        29.81R
6HR MIN TEMP:  15; 6HR MAX TEMP:  18;

$$

WIZ029-030-035-036-043>047-151300-
CENTRAL WISCONSIN

CITY           SKY/WX    TMP DP  RH WIND       PRES   REMARKS
WAUSAU         CLOUDY    17  12  80 NW10      29.80R WCI   5
6HR MIN TEMP:  16; 6HR MAX TEMP:  18; 6HR PCP: TRACE;

MOSINEE        FLURRIES  18  16  93 W13       29.81S WCI   4
MARSHFIELD     CLOUDY    18  13  80 NW15      29.81S WCI   4
6HR MIN TEMP:  18; 6HR MAX TEMP:  19; 6HR PCP: TRACE;

STEVENS POINT  FLURRIES  18  14  87 W7        29.82S WCI   8
6HR MIN TEMP:  17; 6HR MAX TEMP:  18;

WAUPACA        CLOUDY    22  16  76 W8        29.84R WCI  13
6HR MIN TEMP:  22; 6HR MAX TEMP:  24;

WAUTOMA        FLURRIES  20  15  81 W12       29.85S WCI   8
6HR MIN TEMP:  20; 6HR MAX TEMP:  22; 6HR PCP: TRACE;

WISC RAPIDS    CLOUDY    20  13  74 NW10      29.86R WCI   9
6HR MIN TEMP:  19; 6HR MAX TEMP:  21; 6HR PCP: TRACE;

CAMP DOUGLAS   NOT AVBL
$$

WIZ011>013-019>022-031-037>040-048>050-151300-
NORTHEAST WISCONSIN

CITY           SKY/WX    TMP DP  RH WIND       PRES   REMARKS
ANTIGO         CLOUDY    13   8  79 NW13G18   29.77R WCI  -1
6HR MIN TEMP:  13; 6HR MAX TEMP:  16;

SHAWANO        CLOUDY    20  15  79 W3        29.81S
6HR MIN TEMP:  20; 6HR MAX TEMP:  22;

OCONTO         PTCLDY    17  11  78 W5        29.81S WCI   9
6HR MIN TEMP:  17; 6HR MAX TEMP:  20;

STURGEON BAY   FLURRIES  20  14  77 NW14      29.79S WCI   7
6HR MIN TEMP:  19; 6HR MAX TEMP:  21; 6HR PCP: TRACE;

GREEN BAY      CLOUDY    20  13  74 W7        29.82S WCI  11
6HR MIN TEMP:  20; 6HR MAX TEMP:  22; 6HR PCP:  0.01;

MANITOWOC      MIX PCPN  20  15  81 W10       29.83S WCI   9
6HR MIN TEMP:  20; 6HR MAX TEMP:  22; 6HR PCP: TRACE;

APPLETON       FLURRIES  19  12  73 W10       29.80F WCI   8
CLINTONVILLE   CLOUDY    19  12  73 NW9       29.82S WCI   9
OSHKOSH        FLURRIES  21  16  81 W6        29.83S WCI  13
6HR MIN TEMP:  21; 6HR MAX TEMP:  23; 6HR PCP: TRACE;

$$

WIZ032>034-041-042-053>061-151300-
SOUTHWEST WISCONSIN

CITY           SKY/WX    TMP DP  RH WIND       PRES   REMARKS
LA CROSSE      MOCLDY    23  14  68 W12       29.92R WCI  12
6HR MIN TEMP:  23; 6HR MAX TEMP:  26;

SPARTA         CLOUDY    22  14  70 W8        29.90S WCI  13
6HR MIN TEMP:  21; 6HR MAX TEMP:  23;

VIROQUA        MOCLDY    21  13  72 NW14      29.87S WCI   8
6HR MIN TEMP:  21; 6HR MAX TEMP:  23;

BOSCOBEL       MOCLDY    26  14  60 W8        29.94R WCI  18
6HR MIN TEMP:  25; 6HR MAX TEMP:  27;

PRAIRIE DU CHI CLOUDY    26  17  70 W7        29.94S WCI  18
6HR MIN TEMP:  24; 6HR MAX TEMP:  27;

PLATTEVILLE    CLOUDY    25  18  76 W10       29.92R WCI  15
6HR MIN TEMP:  24; 6HR MAX TEMP:  26;

$$

WIZ056-057-062-063-064-067-068-151300-
SOUTH CENTRAL WISCONSIN

CITY           SKY/WX    TMP DP  RH WIND       PRES   REMARKS
REEDSBURG      CLOUDY    23  14  68 NW12G17   29.87S WCI  11
6HR MIN TEMP:  21; 6HR MAX TEMP:  24;

BARABOO/DELLS  CLOUDY    22  15  72 NW15      29.86S WCI   9
6HR MIN TEMP:  21; 6HR MAX TEMP:  24;

LONE ROCK      CLOUDY    25  14  63 W14       29.91R WCI  13
6HR MIN TEMP:  23; 6HR MAX TEMP:  25; 6HR PCP: TRACE;

MINERAL POINT  CLOUDY    27  19  74 W12G21    29.88S WCI  16
MADISON        FLURRIES  23  15  71 VRB7      29.88S WCI  15
6HR MIN TEMP:  22; 6HR MAX TEMP:  24; 6HR PCP: TRACE;

MIDDLETON      CLOUDY    25  18  75 W12       29.88S WCI  14
6HR MIN TEMP:  24; 6HR MAX TEMP:  26;

WATERTOWN      FLURRIES  21  19  90 W7        29.86S WCI  13
6HR MIN TEMP:  21; 6HR MAX TEMP:  24;

MONROE         CLOUDY    25  16  68 NW10G21   29.89R WCI  15
JANESVILLE     FLURRIES  27  18  69 W9        29.89F WCI  17
$$

WIZ051-052-058>065-066-070>072-151300-
SOUTHEAST WISCONSIN

CITY           SKY/WX    TMP DP  RH WIND       PRES   REMARKS
MILWAUKEE      FLURRIES  27  18  69 W17G35    29.86S WCI  14
6HR MIN TEMP:  22; 6HR MAX TEMP:  28; 6HR PCP: TRACE;

WAUKESHA       CLOUDY    21  14  73 W14G21    29.87R WCI   8
MILWAUKEE/TIMM CLOUDY    23  16  74 W12       29.86S WCI  12
RACINE         MIX PCPN  25  18  74 W12G22    29.88S WCI  14
6HR MIN TEMP:  21; 6HR MAX TEMP:  25; 6HR PCP: TRACE;

BURLINGTON     CLOUDY    23  18  80 NW10      29.88R WCI  12
6HR MIN TEMP:  22; 6HR MAX TEMP:  24;

KENOSHA        CLOUDY    25  16  68 W17G28    29.87S WCI  12
6HR MIN TEMP:  22; 6HR MAX TEMP:  26;

FOND DU LAC    FLURRIES  22  15  75 W6        29.84S WCI  14
6HR MIN TEMP:  22; 6HR MAX TEMP:  23; 6HR PCP: TRACE;

SHEBOYGAN      CLOUDY    21  16  81 W10       29.83S WCI  10
6HR MIN TEMP:  19; 6HR MAX TEMP:  22; 6HR PCP: TRACE;

WEST BEND      CLOUDY    23  18  80 W9        29.84S WCI  13
JUNEAU         LGT SNOW  20  17  86 W9        29.86S WCI   9
6HR MIN TEMP:  20; 6HR MAX TEMP:  23;

$$

LSZ147-162-151300-
LAKE SUPERIOR

STATION/POSITION TIME  TEMP    WIND        PRES    WAVE
                       AIR SEA DIR/SP/G            HT/PER
                 (UTC) (F)     (DEG/KT/KT) (MB)    (FT/S)
DEVILS ISLAND    1200   17     300/ 17/ 21 1012.0R
SAXON HARBOR     1140   16                 1010.8S
$$

LMZ867-665-643>646-151300-
LAKE MICHIGAN

STATION/POSITION TIME  TEMP    WIND        PRES    WAVE
                       AIR SEA DIR/SP/G            HT/PER
                 (UTC) (F)     (DEG/KT/KT) (MB)    (FT/S)
NORTHPORT PIER   1140



USA.gov is the U.S. government's official web portal to all federal, state and local government web resources and services.